| time (UTC) | temp F | wind direction | speed knots | gust knots | rain 1hr in | rain 24hr in | rain mn in | humidity % | barometer mb |
| 20260504181103 | 63 | 0 | 0.0 | 0.9 | 0.00 | 0.00 | 0.00 | 53 | 1015.4 |
| 20260504180104 | 63 | 0 | 0.0 | 0.0 | 0.00 | 0.00 | 0.00 | 53 | 1015.4 |
| 20260504174604 | 64 | 0 | 0.0 | 0.9 | 0.00 | 0.00 | 0.00 | 53 | 1015.4 |
| 20260504173604 | 65 | 0 | 0.0 | 0.0 | 0.00 | 0.00 | 0.00 | 53 | 1015.4 |
| 20260504170603 | 66 | 0 | 0.0 | 0.0 | 0.00 | 0.00 | 0.00 | 51 | 1015.3 |
| 20260504151104 | 69 | 0 | 0.0 | 0.0 | 0.00 | 0.00 | 0.00 | 53 | 1015.8 |
| 20260504150604 | 68 | 0 | 0.0 | 0.0 | 0.00 | 0.00 | 0.00 | 51 | 1015.8 |
| 20260504141104 | 69 | 358 | 0.0 | 0.0 | 0.00 | 0.00 | 0.00 | 42 | 1015.9 |
| 20260504130603 | 68 | 0 | 0.0 | 0.0 | 0.00 | 0.00 | 0.00 | 46 | 1016.5 |
| 20260504120104 | 67 | 0 | 0.0 | 0.0 | 0.00 | 0.00 | 0.00 | 46 | 1017.5 |
| 20260504110603 | 66 | 0 | 0.0 | 0.0 | 0.00 | 0.00 | 0.00 | 46 | 1018.0 |
| 20260504110104 | 66 | 0 | 0.0 | 0.0 | 0.00 | 0.00 | 0.00 | 45 | 1018.0 |
| 20260504100604 | 64 | 0 | 0.0 | 0.0 | 0.00 | 0.00 | 0.00 | 46 | 1018.5 |
| 20260504100104 | 64 | 0 | 0.0 | 0.0 | 0.00 | 0.00 | 0.00 | 47 | 1018.5 |
| 20260504090104 | 62 | 352 | 0.0 | 0.0 | 0.00 | 0.00 | 0.00 | 47 | 1019.3 |
| 20260504081104 | 61 | 324 | 0.0 | 0.0 | 0.00 | 0.00 | 0.00 | 45 | 1019.4 |
| 20260504070104 | 55 | 0 | 0.0 | 0.0 | 0.00 | 0.00 | 0.00 | 59 | 1019.5 |
| 20260504050604 | 48 | 0 | 0.0 | 0.0 | 0.00 | 0.00 | 0.00 | 79 | 1018.7 |
| 20260504044604 | 47 | 0 | 0.0 | 0.9 | 0.00 | 0.00 | 0.00 | 80 | 1018.7 |
| 20260504044104 | 46 | 0 | 0.0 | 0.0 | 0.00 | 0.00 | 0.00 | 80 | 1018.7 |
| 20260504043104 | 46 | 0 | 0.0 | 0.0 | 0.00 | 0.00 | 0.00 | 80 | 1018.7 |
| 20260504041603 | 45 | 0 | 0.0 | 0.0 | 0.00 | 0.00 | 0.00 | 80 | 1018.7 |
| 20260504041103 | 45 | 0 | 0.0 | 2.6 | 0.00 | 0.00 | 0.00 | 79 | 1018.7 |
| 20260504040603 | 45 | 0 | 0.0 | 0.9 | 0.00 | 0.00 | 0.00 | 79 | 1018.7 |
| 20260504040104 | 44 | 0 | 0.0 | 1.7 | 0.00 | 0.00 | 0.00 | 79 | 1018.7 |
| 20260504034603 | 44 | 0 | 0.0 | 0.0 | 0.00 | 0.00 | 0.00 | 78 | 1018.7 |
| 20260504031604 | 44 | 0 | 0.0 | 0.9 | 0.00 | 0.01 | 0.00 | 77 | 1018.7 |
| 20260504024603 | 45 | 0 | 0.0 | 0.0 | 0.00 | 0.01 | 0.00 | 75 | 1018.9 |
| 20260504024103 | 45 | 0 | 0.0 | 0.0 | 0.00 | 0.01 | 0.00 | 75 | 1018.9 |
| 20260504023604 | 45 | 0 | 0.0 | 0.0 | 0.00 | 0.01 | 0.00 | 75 | 1018.9 |
| 20260504020604 | 46 | 0 | 0.0 | 0.0 | 0.00 | 0.01 | 0.00 | 74 | 1018.4 |
| 20260504014104 | 46 | 0 | 0.0 | 0.0 | 0.00 | 0.01 | 0.00 | 73 | 1018.4 |
| 20260504013604 | 46 | 0 | 0.0 | 0.0 | 0.00 | 0.01 | 0.00 | 74 | 1018.4 |
| 20260504013103 | 46 | 0 | 0.0 | 1.7 | 0.00 | 0.01 | 0.00 | 74 | 1018.4 |
| 20260504011604 | 46 | 0 | 0.0 | 6.1 | 0.00 | 0.01 | 0.00 | 73 | 1018.4 |
| 20260504011104 | 46 | 0 | 0.9 | 6.1 | 0.00 | 0.01 | 0.00 | 73 | 1018.3 |
| 20260504004603 | 46 | 0 | 0.0 | 0.0 | 0.00 | 0.01 | 0.00 | 71 | 1018.3 |
| 20260504003604 | 47 | 0 | 0.0 | 0.0 | 0.00 | 0.01 | 0.00 | 70 | 1018.2 |
| 20260504001604 | 47 | 0 | 0.0 | 0.0 | 0.00 | 0.01 | 0.00 | 69 | 1018.4 |
| 20260504001104 | 48 | 0 | 0.0 | 0.0 | 0.00 | 0.01 | 0.00 | 68 | 1018.4 |
| 20260503234104 | 49 | 0 | 0.0 | 0.0 | 0.00 | 0.01 | 0.00 | 66 | 1018.4 |
| 20260503231103 | 50 | 0 | 0.0 | 0.0 | 0.00 | 0.01 | 0.00 | 64 | 1018.4 |
| 20260503224604 | 50 | 0 | 0.0 | 0.0 | 0.00 | 0.01 | 0.00 | 64 | 1018.2 |
| 20260503224104 | 50 | 0 | 0.0 | 0.0 | 0.00 | 0.01 | 0.00 | 65 | 1018.2 |
| 20260503223603 | 50 | 0 | 0.0 | 0.0 | 0.00 | 0.01 | 0.00 | 65 | 1018.2 |
| 20260503221603 | 51 | 0 | 0.0 | 0.0 | 0.00 | 0.01 | 0.00 | 64 | 1018.0 |
| 20260503210603 | 53 | 0 | 0.0 | 0.0 | 0.00 | 0.01 | 0.00 | 58 | 1018.0 |
| 20260503210105 | 53 | 0 | 0.0 | 0.0 | 0.00 | 0.01 | 0.00 | 58 | 1018.0 |
| 20260503204603 | 53 | 0 | 0.0 | 0.0 | 0.00 | 0.01 | 0.01 | 56 | 1018.0 |
| 20260503204104 | 53 | 0 | 0.0 | 0.0 | 0.00 | 0.01 | 0.01 | 56 | 1018.0 |
| 20260503203104 | 53 | 0 | 0.0 | 0.0 | 0.00 | 0.01 | 0.01 | 56 | 1018.0 |
| 20260503201104 | 53 | 0 | 0.0 | 0.0 | 0.00 | 0.01 | 0.01 | 56 | 1017.9 |
| 20260503193604 | 55 | 0 | 0.0 | 0.0 | 0.00 | 0.01 | 0.01 | 57 | 1017.9 |
| 20260503191604 | 56 | 0 | 0.0 | 0.0 | 0.00 | 0.01 | 0.01 | 56 | 1017.9 |
| 20260503191103 | 57 | 0 | 0.0 | 0.0 | 0.00 | 0.01 | 0.01 | 55 | 1017.9 |
| 20260503190604 | 57 | 0 | 0.0 | 0.0 | 0.00 | 0.01 | 0.01 | 54 | 1017.6 |
| 20260503184104 | 58 | 0 | 0.0 | 0.0 | 0.00 | 0.01 | 0.01 | 51 | 1017.6 |